Weather History for Mount Carmel, IL

Change the Weather History Date:

Thursday, May 16, 2013

  Actual Average (KLWV) Record (KLWV)
Temperature  
Mean Temperature 70 °F 66 °F  
Max Temperature 75 °F 77 °F 93 °F (2001)
Min Temperature 64 °F 56 °F 37 °F (1997)
Degree Days  
Heating Degree Days 0 3  
Month to date heating degree days 58  
Since 1 July heating degree days 4649  
Cooling Degree Days 4 4  
Month to date cooling degree days 38  
Year to date cooling degree days 64  
Growing Degree Days 20 (Base 50)    
Moisture  
Dew Point 63 °F    
Average Humidity 82    
Maximum Humidity 94    
Minimum Humidity 57    
Precipitation  
Precipitation 0.00 in 0.20 in 2.98 in (1990)
Month to date precipitation 3.25  
Year to date precipitation 15.23  
Sea Level Pressure  
Sea Level Pressure 29.93 in    
Wind  
Wind Speed 8 mph (SSW)    
Max Wind Speed 25 mph    
Max Gust Speed 34 mph    
Visibility 8 miles    
Events Rain , Thunderstorm    
T = Trace of Precipitation, MM = Missing Value Source: NWS Daily Summary

Daily Weather History Graph

Daily Weather History Graph

Search for Another Location

Airport:

Trip Planner

Search our weather history database for the weather conditions in past years. The results will help you decide how hot, cold, wet, or windy it might be!

Date:

Astronomy

May. 16, 2013 Rise Set
Actual Time 5:38 AM CDT 7:57 PM CDT
Civil Twilight 5:08 AM CDT 8:27 PM CDT
Nautical Twilight 4:31 AM CDT 9:04 PM CDT
Astronomical Twilight 3:50 AM CDT 9:44 PM CDT
Moon 11:09 AM CDT (5/16) 12:18 AM CDT (5/16)
Length of Visible Light 15h 19m
Length of Day
14h 19m
Waxing Crescent, 36% of the Moon is Illuminated
May 16
Waxing Crescent
May 17
First Quarter
May 24
Full
May 31
Last Quarter
Jun 8
New

Hourly Weather History & Observations

Time (CDT) Temp. Dew Point Humidity Pressure Visibility Wind Dir Wind Speed Gust Speed Precip Events Conditions
12:15 AM 71.6 °F 59.0 °F 64% 29.89 in 10.0 mi SW 9.2 mph - N/A   Clear
12:35 AM 71.6 °F 59.0 °F 64% 29.89 in 10.0 mi SW 9.2 mph - N/A   Clear
12:55 AM 71.6 °F 57.2 °F 60% 29.89 in 10.0 mi SW 11.5 mph - N/A   Clear
1:15 AM 71.6 °F 55.4 °F 57% 29.89 in 10.0 mi SW 10.4 mph - N/A   Clear
1:35 AM 71.6 °F 57.2 °F 60% 29.87 in 10.0 mi SW 11.5 mph - N/A   Clear
1:55 AM 71.6 °F 57.2 °F 60% 29.87 in 10.0 mi SW 10.4 mph - N/A   Clear
2:15 AM 69.8 °F 57.2 °F 64% 29.87 in 10.0 mi SW 10.4 mph - N/A   Clear
2:35 AM 69.8 °F 57.2 °F 64% 29.88 in 10.0 mi WSW 6.9 mph - N/A   Clear
2:55 AM 69.8 °F 57.2 °F 64% 29.87 in 10.0 mi SW 8.1 mph - N/A   Clear
3:15 AM 69.8 °F 59.0 °F 68% 29.88 in 10.0 mi West 4.6 mph - N/A   Clear
3:35 AM 68.0 °F 59.0 °F 73% 29.88 in 10.0 mi WSW 4.6 mph - N/A   Clear
3:55 AM 68.0 °F 59.0 °F 73% 29.88 in 10.0 mi SW 6.9 mph - N/A   Clear
4:15 AM 68.0 °F 59.0 °F 73% 29.88 in 10.0 mi SW 5.8 mph - N/A   Clear
4:35 AM 68.0 °F 60.8 °F 78% 29.88 in 10.0 mi SW 8.1 mph - N/A   Clear
4:55 AM 69.8 °F 60.8 °F 73% 29.88 in 10.0 mi SW 8.1 mph - N/A   Clear
5:15 AM 68.0 °F 60.8 °F 78% 29.89 in 10.0 mi WSW 5.8 mph - N/A   Clear
5:35 AM 68.0 °F 60.8 °F 78% 29.89 in 10.0 mi SW 5.8 mph - N/A   Clear
5:55 AM 68.0 °F 60.8 °F 78% 29.90 in 10.0 mi SW 9.2 mph - N/A   Clear
6:15 AM 69.8 °F 60.8 °F 73% 29.90 in 10.0 mi SW 9.2 mph - N/A   Clear
6:35 AM 69.8 °F 60.8 °F 73% 29.91 in 10.0 mi SW 9.2 mph - N/A   Clear
6:55 AM 69.8 °F 60.8 °F 73% 29.92 in 10.0 mi WSW 9.2 mph - N/A   Clear
7:15 AM 69.8 °F 60.8 °F 73% 29.93 in 10.0 mi WSW 10.4 mph - N/A   Clear
7:35 AM 69.8 °F 62.6 °F 78% 29.93 in 10.0 mi WSW 11.5 mph - N/A Thunderstorm Scattered Clouds
7:55 AM 71.6 °F 62.6 °F 73% 29.94 in 10.0 mi WSW 11.5 mph - N/A   Overcast
8:15 AM 71.6 °F 62.6 °F 73% 29.94 in 10.0 mi WSW 9.2 mph - N/A   Overcast
8:35 AM 71.6 °F 62.6 °F 73% 29.93 in 10.0 mi WSW 10.4 mph - N/A Rain , Thunderstorm Light Thunderstorms and Rain
8:55 AM 71.6 °F 64.4 °F 78% 29.94 in 10.0 mi WSW 18.4 mph 24.2 mph N/A Thunderstorm Overcast
9:15 AM 69.8 °F 59.0 °F 68% 29.94 in 10.0 mi SW 25.3 mph 34.5 mph N/A Thunderstorm Thunderstorm
9:35 AM 64.4 °F 59.0 °F 83% 29.95 in 3.0 mi SW 19.6 mph 32.2 mph N/A Rain , Thunderstorm Heavy Thunderstorms and Rain
9:55 AM 66.2 °F 60.8 °F 83% 29.95 in 0.8 mi South 8.1 mph 31.1 mph N/A Rain , Thunderstorm Light Thunderstorms and Rain
10:15 AM 64.4 °F 62.6 °F 94% 29.96 in 7.0 mi Calm Calm - N/A Rain , Thunderstorm Thunderstorms and Rain
10:35 AM 66.2 °F 62.6 °F 88% 29.98 in 7.0 mi SE 4.6 mph - N/A Rain , Thunderstorm Heavy Thunderstorms and Rain
10:55 AM 66.2 °F 62.6 °F 88% 29.97 in 5.0 mi East 9.2 mph - N/A Rain , Thunderstorm Thunderstorms and Rain
11:15 AM 66.2 °F 62.6 °F 88% 29.97 in 2.5 mi Calm Calm - N/A Rain , Thunderstorm Heavy Thunderstorms and Rain
11:35 AM 66.2 °F 64.4 °F 94% 29.97 in 3.0 mi West 8.1 mph - N/A Rain , Thunderstorm Heavy Thunderstorms and Rain
11:55 AM 66.2 °F 62.6 °F 88% 29.98 in 5.0 mi SW 4.6 mph - N/A Rain , Thunderstorm Rain
12:15 PM 66.2 °F 64.4 °F 94% 29.98 in 5.0 mi ESE 6.9 mph 10.4 mph N/A Rain , Thunderstorm Light Thunderstorms and Rain
12:35 PM 66.2 °F 64.4 °F 94% 29.99 in 5.0 mi East 8.1 mph - N/A Rain , Thunderstorm Light Thunderstorms and Rain
12:55 PM 66.2 °F 64.4 °F 94% 30.00 in 5.0 mi North 4.6 mph - N/A Rain , Thunderstorm Heavy Thunderstorms and Rain
1:15 PM 66.2 °F 64.4 °F 94% 29.99 in 5.0 mi Calm Calm - N/A Rain Rain
1:35 PM 68.0 °F 64.4 °F 88% 29.99 in 5.0 mi Calm Calm - N/A Rain Light Rain
2:15 PM 66.2 °F 64.4 °F 94% 29.98 in 5.0 mi NNW 9.2 mph - N/A Rain Rain
2:35 PM 68.0 °F 64.4 °F 88% 29.96 in 7.0 mi North 9.2 mph - N/A Rain Rain
2:55 PM 68.0 °F 64.4 °F 88% 29.95 in 10.0 mi NW 3.5 mph - N/A   Mostly Cloudy
3:15 PM 69.8 °F 64.4 °F 83% 29.94 in 10.0 mi Calm Calm - N/A   Scattered Clouds
3:35 PM 71.6 °F 66.2 °F 83% 29.94 in 10.0 mi NW 3.5 mph - N/A   Clear
3:55 PM 71.6 °F 66.2 °F 83% 29.93 in 10.0 mi Calm Calm - N/A   Clear
4:15 PM 73.4 °F 66.2 °F 78% 29.93 in 10.0 mi SW 3.5 mph - N/A   Clear
4:35 PM 73.4 °F 68.0 °F 83% 29.93 in 10.0 mi SSW 3.5 mph - N/A   Clear
5:15 PM 75.2 °F 68.0 °F 78% 29.92 in 10.0 mi SSW 4.6 mph - N/A   Clear
5:35 PM 75.2 °F 69.8 °F 83% 29.92 in 10.0 mi South 6.9 mph - N/A   Clear
5:55 PM 73.4 °F 68.0 °F 83% 29.92 in 10.0 mi SSE 4.6 mph - N/A   Clear
6:15 PM 73.4 °F 69.8 °F 88% 29.92 in 10.0 mi SE 5.8 mph - N/A   Clear
6:35 PM 73.4 °F 69.8 °F 88% 29.92 in 10.0 mi ESE 3.5 mph - N/A   Clear
6:55 PM 73.4 °F 69.8 °F 88% 29.92 in 10.0 mi East 3.5 mph - N/A   Clear
7:15 PM 71.6 °F 68.0 °F 88% 29.92 in 10.0 mi ENE 4.6 mph - N/A   Scattered Clouds
7:35 PM 71.6 °F 68.0 °F 88% 29.93 in 7.0 mi East 3.5 mph - N/A   Scattered Clouds
7:55 PM 69.8 °F 68.0 °F 94% 29.93 in 7.0 mi East 5.8 mph - N/A   Scattered Clouds
8:15 PM 69.8 °F 68.0 °F 94% 29.93 in 7.0 mi East 6.9 mph - N/A   Scattered Clouds
8:35 PM 69.8 °F 68.0 °F 94% 29.94 in 5.0 mi East 5.8 mph - N/A   Clear
8:55 PM 69.8 °F 68.0 °F 94% 29.94 in 4.0 mi East 5.8 mph - N/A   Clear
9:15 PM 68.0 °F 66.2 °F 94% 29.95 in 3.0 mi East 5.8 mph - N/A   Clear
9:35 PM 68.0 °F 66.2 °F 94% 29.95 in 2.5 mi East 5.8 mph - N/A   Clear
9:55 PM 68.0 °F 66.2 °F 94% 29.95 in 2.5 mi ESE 5.8 mph - N/A   Clear
10:15 PM 68.0 °F 64.4 °F 88% 29.95 in 2.5 mi East 6.9 mph - N/A   Clear
10:35 PM 68.0 °F 64.4 °F 88% 29.95 in 2.0 mi East 5.8 mph - N/A   Clear
10:55 PM 66.2 °F 64.4 °F 94% 29.96 in 2.0 mi East 5.8 mph - N/A   Clear
11:15 PM 66.2 °F 64.4 °F 94% 29.96 in 2.0 mi East 4.6 mph - N/A   Clear
11:35 PM 64.4 °F 62.6 °F 94% 29.97 in 3.0 mi East 6.9 mph - N/A   Clear
11:55 PM 64.4 °F 62.6 °F 94% 29.98 in 2.0 mi ENE 5.8 mph - N/A   Scattered Clouds